Tracking 25701 objects as of 4-Jul-2022
HD Live streaming from Space Station
objects crossing your sky now

COSMOS 2499 DEB

Track COSMOS 2499 DEB now!
10-day predictions


NORAD ID: 49938
Int'l Code: 2014-028V
Perigee: 1,054.7 km
Apogee: 1,517.5 km
Inclination: 82.6 °
Period: 111.1 minutes
Semi major axis: 7657 km
RCS: Unknown
Launch date: May 23, 2014
Source: Commonwealth of Independent States (former USSR) (CIS)
Launch site: PLESETSK MISSILE AND SPACE COMPLEX (PKMTR)

Note: This is SATELLITE DEBRIS
aabbcc
Your satellite tracking list
Your tracking list is empty




NASA's NSSDC Master Catalog

Two Line Element Set (TLE):
1 49938U 14028V   22183.17247504  .00002409  00000-0  68706-2 0  9998
2 49938  82.5680 147.4163 0302217 124.7569 238.2393 12.95697090 31315
Source of the keplerian elements: AFSPC